Time,TemperatureF,DewpointF,PressureIn,WindDirection,WindDirectionDegrees,WindSpeedMPH,WindSpeedGustMPH,Humidity,HourlyPrecipIn,Conditions,Clouds,dailyrainin,SoftwareType,DateUTC
2013-01-25 00:00:00,12.4,0.8,30.28,NNW,328,9.8,16.8,59,0.00,,CLR,0.00,VWS V14.01,2013-01-25 05:00:00,
2013-01-25 00:01:00,12.4,0.4,30.28,North,356,1.4,14.0,58,0.00,,CLR,0.00,VWS V14.01,2013-01-25 05:01:00,
2013-01-25 00:06:00,12.5,0.5,30.28,West,262,0.0,4.2,58,0.00,,CLR,0.00,VWS V14.01,2013-01-25 05:06:00,
2013-01-25 00:11:00,12.5,0.5,30.28,NW,313,5.6,8.4,58,0.00,,CLR,0.00,VWS V14.01,2013-01-25 05:11:00,
2013-01-25 00:16:00,12.5,0.9,30.28,NNE,28,4.2,8.4,59,0.00,,CLR,0.00,VWS V14.01,2013-01-25 05:16:00,
2013-01-25 00:21:00,12.4,0.8,30.28,WSW,253,7.0,7.0,59,0.00,,CLR,0.00,VWS V14.01,2013-01-25 05:21:00,
2013-01-25 00:26:00,12.4,1.2,30.28,WSW,258,2.8,5.6,60,0.00,,CLR,0.00,VWS V14.01,2013-01-25 05:26:00,
2013-01-25 00:31:00,12.4,1.2,30.28,WNW,288,0.0,11.2,60,0.00,,CLR,0.00,VWS V14.01,2013-01-25 05:31:00,
2013-01-25 00:36:00,12.2,1.0,30.28,NNW,334,12.6,12.6,60,0.00,,CLR,0.00,VWS V14.01,2013-01-25 05:36:00,
2013-01-25 00:41:00,12.2,1.0,30.27,WNW,296,0.0,12.6,60,0.00,,CLR,0.00,VWS V14.01,2013-01-25 05:41:00,
2013-01-25 00:46:00,12.0,0.8,30.27,NW,324,0.0,1.4,60,0.00,,CLR,0.00,VWS V14.01,2013-01-25 05:46:00,
2013-01-25 00:51:00,12.1,0.9,30.28,NNW,339,5.6,7.0,60,0.00,,CLR,0.00,VWS V14.01,2013-01-25 05:51:00,
2013-01-25 00:56:00,12.0,0.8,30.28,WNW,295,2.8,5.6,60,0.00,,CLR,0.00,VWS V14.01,2013-01-25 05:56:00,
2013-01-25 01:01:00,12.1,1.2,30.28,WNW,291,0.0,4.2,61,0.00,,CLR,0.00,VWS V14.01,2013-01-25 06:01:00,
2013-01-25 01:06:00,12.0,0.8,30.29,NW,325,0.0,0.0,60,0.00,,CLR,0.00,VWS V14.01,2013-01-25 06:06:00,
2013-01-25 01:11:00,12.0,0.8,30.29,NNW,328,0.0,4.2,60,0.00,,CLR,0.00,VWS V14.01,2013-01-25 06:11:00,
2013-01-25 01:16:00,11.8,1.0,30.29,NW,306,0.0,4.2,61,0.00,,CLR,0.00,VWS V14.01,2013-01-25 06:16:00,
2013-01-25 01:21:00,11.7,0.9,30.28,NW,311,5.6,7.0,61,0.00,,CLR,0.00,VWS V14.01,2013-01-25 06:21:00,
2013-01-25 01:26:00,11.7,0.9,30.29,WNW,293,0.0,2.8,61,0.00,,CLR,0.00,VWS V14.01,2013-01-25 06:26:00,
2013-01-25 01:31:00,11.7,0.9,30.28,WNW,289,0.0,0.0,61,0.00,,CLR,0.00,VWS V14.01,2013-01-25 06:31:00,
2013-01-25 01:36:00,11.4,0.6,30.29,WNW,289,0.0,0.0,61,0.00,,CLR,0.00,VWS V14.01,2013-01-25 06:36:00,
2013-01-25 01:41:00,11.2,0.4,30.29,WNW,289,0.0,1.4,61,0.00,,CLR,0.00,VWS V14.01,2013-01-25 06:41:00,
2013-01-25 01:46:00,11.2,0.4,30.29,WNW,289,0.0,1.4,61,0.00,,CLR,0.00,VWS V14.01,2013-01-25 06:46:00,
2013-01-25 01:51:00,11.0,0.2,30.29,NNW,337,0.0,4.2,61,0.00,,CLR,0.00,VWS V14.01,2013-01-25 06:51:00,
2013-01-25 01:56:00,10.9,0.4,30.30,NNW,337,0.0,0.0,62,0.00,,CLR,0.00,VWS V14.01,2013-01-25 06:56:00,
2013-01-25 02:01:00,10.7,0.3,30.30,NW,324,0.0,0.0,62,0.00,,CLR,0.00,VWS V14.01,2013-01-25 07:01:00,
2013-01-25 02:06:00,10.5,0.4,30.30,NW,324,0.0,0.0,63,0.00,,CLR,0.00,VWS V14.01,2013-01-25 07:06:00,
2013-01-25 02:11:00,10.3,0.2,30.30,NW,324,0.0,0.0,63,0.00,,CLR,0.00,VWS V14.01,2013-01-25 07:11:00,
2013-01-25 02:16:00,10.4,0.3,30.30,NW,324,0.0,0.0,63,0.00,,CLR,0.00,VWS V14.01,2013-01-25 07:16:00,
2013-01-25 02:21:00,10.2,0.5,30.30,NW,324,0.0,0.0,64,0.00,,CLR,0.00,VWS V14.01,2013-01-25 07:21:00,
2013-01-25 02:26:00,10.2,0.8,30.30,NNW,334,0.0,0.0,65,0.00,,CLR,0.00,VWS V14.01,2013-01-25 07:26:00,
2013-01-25 02:31:00,10.0,0.6,30.31,NW,315,0.0,4.2,65,0.00,,CLR,0.00,VWS V14.01,2013-01-25 07:31:00,
2013-01-25 02:36:00,10.2,0.8,30.31,West,279,0.0,1.4,65,0.00,,CLR,0.00,VWS V14.01,2013-01-25 07:36:00,
2013-01-25 02:41:00,10.2,1.1,30.31,West,278,0.0,8.4,66,0.00,,CLR,0.00,VWS V14.01,2013-01-25 07:41:00,
2013-01-25 02:46:00,10.0,1.2,30.31,WNW,287,0.0,0.0,67,0.00,,CLR,0.00,VWS V14.01,2013-01-25 07:46:00,
2013-01-25 02:51:00,10.0,1.6,30.30,West,281,0.0,7.0,68,0.00,,CLR,0.00,VWS V14.01,2013-01-25 07:51:00,
2013-01-25 02:56:00,10.2,1.1,30.31,West,281,0.0,4.2,66,0.00,,CLR,0.00,VWS V14.01,2013-01-25 07:56:00,
2013-01-25 03:01:00,10.4,1.3,30.31,WNW,295,0.0,8.4,66,0.00,,CLR,0.00,VWS V14.01,2013-01-25 08:01:00,
2013-01-25 03:06:00,10.4,1.6,30.31,NNE,28,0.0,5.6,67,0.00,,CLR,0.00,VWS V14.01,2013-01-25 08:06:00,
2013-01-25 03:11:00,10.6,1.5,30.31,WNW,287,2.8,9.8,66,0.00,,CLR,0.00,VWS V14.01,2013-01-25 08:11:00,
2013-01-25 03:16:00,10.7,1.6,30.31,NW,325,0.0,1.4,66,0.00,,CLR,0.00,VWS V14.01,2013-01-25 08:16:00,
2013-01-25 03:21:00,10.7,1.6,30.31,NW,305,0.0,5.6,66,0.00,,CLR,0.00,VWS V14.01,2013-01-25 08:21:00,
2013-01-25 03:26:00,10.7,1.6,30.31,NW,305,0.0,1.4,66,0.00,,CLR,0.00,VWS V14.01,2013-01-25 08:26:00,
2013-01-25 03:31:00,10.5,1.7,30.31,West,264,0.0,8.4,67,0.00,,CLR,0.00,VWS V14.01,2013-01-25 08:31:00,
2013-01-25 03:36:00,10.5,1.7,30.31,NW,306,0.0,2.8,67,0.00,,CLR,0.00,VWS V14.01,2013-01-25 08:36:00,
2013-01-25 03:41:00,10.6,1.5,30.31,WSW,239,0.0,4.2,66,0.00,,CLR,0.00,VWS V14.01,2013-01-25 08:41:00,
2013-01-25 03:46:00,10.6,2.1,30.30,WSW,249,0.0,0.0,68,0.00,,CLR,0.00,VWS V14.01,2013-01-25 08:46:00,
2013-01-25 03:51:00,10.3,1.9,30.30,WNW,283,2.8,7.0,68,0.00,,CLR,0.00,VWS V14.01,2013-01-25 08:51:00,
2013-01-25 03:56:00,10.3,1.5,30.30,WNW,294,0.0,7.0,67,0.00,,CLR,0.00,VWS V14.01,2013-01-25 08:56:00,
2013-01-25 04:01:00,10.5,1.7,30.30,WSW,238,0.0,0.0,67,0.00,,CLR,0.00,VWS V14.01,2013-01-25 09:01:00,
2013-01-25 04:06:00,10.3,1.5,30.30,NW,320,0.0,0.0,67,0.00,,CLR,0.00,VWS V14.01,2013-01-25 09:06:00,
2013-01-25 04:11:00,10.4,1.6,30.30,WNW,299,0.0,0.0,67,0.00,,CLR,0.00,VWS V14.01,2013-01-25 09:11:00,
2013-01-25 04:16:00,10.2,1.8,30.30,WNW,289,0.0,0.0,68,0.00,,CLR,0.00,VWS V14.01,2013-01-25 09:16:00,
2013-01-25 04:21:00,10.0,1.6,30.30,NNW,330,0.0,0.0,68,0.00,,CLR,0.00,VWS V14.01,2013-01-25 09:21:00,
2013-01-25 04:26:00,10.0,1.6,30.30,WNW,303,0.0,1.4,68,0.00,,CLR,0.00,VWS V14.01,2013-01-25 09:26:00,
2013-01-25 04:31:00,9.9,1.5,30.31,WNW,303,0.0,0.0,68,0.00,,CLR,0.00,VWS V14.01,2013-01-25 09:31:00,
2013-01-25 04:36:00,9.6,1.5,30.30,North,355,0.0,1.4,69,0.00,,CLR,0.00,VWS V14.01,2013-01-25 09:36:00,
2013-01-25 04:41:00,9.3,1.5,30.31,WNW,292,0.0,0.0,70,0.00,,CLR,0.00,VWS V14.01,2013-01-25 09:41:00,
2013-01-25 04:46:00,9.1,1.0,30.31,WNW,292,0.0,0.0,69,0.00,,CLR,0.00,VWS V14.01,2013-01-25 09:46:00,
2013-01-25 04:51:00,9.1,1.0,30.31,WNW,292,0.0,0.0,69,0.00,,CLR,0.00,VWS V14.01,2013-01-25 09:51:00,
2013-01-25 04:56:00,9.1,1.0,30.31,WNW,292,0.0,0.0,69,0.00,,CLR,0.00,VWS V14.01,2013-01-25 09:56:00,
2013-01-25 05:01:00,8.9,1.1,30.31,WNW,292,0.0,0.0,70,0.00,,CLR,0.00,VWS V14.01,2013-01-25 10:01:00,
2013-01-25 05:06:00,8.8,1.0,30.31,WNW,292,0.0,0.0,70,0.00,,CLR,0.00,VWS V14.01,2013-01-25 10:06:00,
2013-01-25 05:11:00,8.6,0.8,30.31,WNW,291,0.0,0.0,70,0.00,,CLR,0.00,VWS V14.01,2013-01-25 10:11:00,
2013-01-25 05:16:00,8.6,0.8,30.32,SW,219,0.0,0.0,70,0.00,,CLR,0.00,VWS V14.01,2013-01-25 10:16:00,
2013-01-25 05:21:00,8.6,1.1,30.32,SW,219,0.0,0.0,71,0.00,,CLR,0.00,VWS V14.01,2013-01-25 10:21:00,
2013-01-25 05:26:00,8.6,1.1,30.31,WNW,303,0.0,2.8,71,0.00,,CLR,0.00,VWS V14.01,2013-01-25 10:26:00,
2013-01-25 05:31:00,8.4,1.2,30.32,WNW,301,0.0,1.4,72,0.00,,CLR,0.00,VWS V14.01,2013-01-25 10:31:00,
2013-01-25 05:36:00,8.4,1.5,30.31,WNW,295,2.8,2.8,73,0.00,,CLR,0.00,VWS V14.01,2013-01-25 10:36:00,
2013-01-25 05:41:00,8.4,1.5,30.32,WNW,298,0.0,0.0,73,0.00,,CLR,0.00,VWS V14.01,2013-01-25 10:41:00,
2013-01-25 05:46:00,8.4,1.5,30.32,NNE,33,0.0,0.0,73,0.00,,CLR,0.00,VWS V14.01,2013-01-25 10:46:00,
2013-01-25 05:51:00,8.5,1.6,30.31,North,4,0.0,0.0,73,0.00,,CLR,0.00,VWS V14.01,2013-01-25 10:51:00,
2013-01-25 05:56:00,8.4,1.5,30.31,NNW,335,0.0,1.4,73,0.00,,CLR,0.00,VWS V14.01,2013-01-25 10:56:00,
2013-01-25 06:01:00,8.5,1.6,30.32,NNW,335,0.0,0.0,73,0.00,,CLR,0.00,VWS V14.01,2013-01-25 11:01:00,
2013-01-25 06:06:00,8.3,1.5,30.32,NNW,334,0.0,0.0,73,0.00,,CLR,0.00,VWS V14.01,2013-01-25 11:06:00,
2013-01-25 06:11:00,8.2,1.0,30.32,NNW,335,0.0,1.4,72,0.00,,CLR,0.00,VWS V14.01,2013-01-25 11:11:00,
2013-01-25 06:16:00,8.3,1.5,30.31,SW,218,0.0,0.0,73,0.00,,CLR,0.00,VWS V14.01,2013-01-25 11:16:00,
2013-01-25 06:21:00,8.2,1.4,30.31,ENE,72,0.0,0.0,73,0.00,,CLR,0.00,VWS V14.01,2013-01-25 11:21:00,
2013-01-25 06:26:00,8.5,1.3,30.31,NW,317,0.0,1.4,72,0.00,,CLR,0.00,VWS V14.01,2013-01-25 11:26:00,
2013-01-25 06:31:00,8.6,0.8,30.32,North,6,0.0,8.4,70,0.00,,CLR,0.00,VWS V14.01,2013-01-25 11:31:00,
2013-01-25 06:36:00,8.8,0.7,30.31,WNW,286,0.0,0.0,69,0.00,,CLR,0.00,VWS V14.01,2013-01-25 11:36:00,
2013-01-25 06:41:00,8.9,0.5,30.31,North,354,0.0,9.8,68,0.00,,CLR,0.00,VWS V14.01,2013-01-25 11:41:00,
2013-01-25 06:46:00,8.9,0.5,30.32,WNW,295,0.0,1.4,68,0.00,,CLR,0.00,VWS V14.01,2013-01-25 11:46:00,
2013-01-25 06:51:00,8.9,0.5,30.32,NW,323,0.0,0.0,68,0.00,,CLR,0.00,VWS V14.01,2013-01-25 11:51:00,
2013-01-25 06:56:00,8.8,0.1,30.32,WNW,284,2.8,2.8,67,0.00,,CLR,0.00,VWS V14.01,2013-01-25 11:56:00,
2013-01-25 07:01:00,8.8,0.4,30.32,West,271,0.0,0.0,68,0.00,,CLR,0.00,VWS V14.01,2013-01-25 12:01:00,
2013-01-25 07:06:00,8.6,0.2,30.33,WNW,299,0.0,0.0,68,0.00,,BKN250,0.00,VWS V14.01,2013-01-25 12:06:00,
2013-01-25 07:11:00,8.6,0.2,30.33,NW,307,0.0,7.0,68,0.00,,BKN250,0.00,VWS V14.01,2013-01-25 12:11:00,
2013-01-25 07:16:00,8.6,0.5,30.33,WSW,255,1.4,2.8,69,0.00,,BKN250,0.00,VWS V14.01,2013-01-25 12:16:00,
2013-01-25 07:21:00,8.6,0.2,30.33,WNW,301,0.0,0.0,68,0.00,,BKN250,0.00,VWS V14.01,2013-01-25 12:21:00,
2013-01-25 07:26:00,8.8,0.4,30.33,West,272,0.0,1.4,68,0.00,,BKN250,0.00,VWS V14.01,2013-01-25 12:26:00,
2013-01-25 07:31:00,8.8,0.4,30.34,West,269,2.8,2.8,68,0.00,,BKN250,0.00,VWS V14.01,2013-01-25 12:31:00,
2013-01-25 07:36:00,9.0,0.6,30.34,WNW,287,1.4,5.6,68,0.00,,BKN250,0.00,VWS V14.01,2013-01-25 12:36:00,
2013-01-25 07:41:00,8.9,0.5,30.34,WSW,238,0.0,0.0,68,0.00,,BKN250,0.00,VWS V14.01,2013-01-25 12:41:00,
2013-01-25 07:46:00,9.1,0.7,30.34,WSW,238,0.0,0.0,68,0.00,,BKN250,0.00,VWS V14.01,2013-01-25 12:46:00,
2013-01-25 07:51:00,9.1,1.0,30.33,WSW,238,0.0,0.0,69,0.00,,BKN250,0.00,VWS V14.01,2013-01-25 12:51:00,
2013-01-25 07:56:00,9.3,1.2,30.33,WNW,293,0.0,0.0,69,0.00,,BKN250,0.00,VWS V14.01,2013-01-25 12:56:00,
2013-01-25 08:01:00,9.5,1.7,30.33,NW,306,7.0,7.0,70,0.00,,BKN250,0.00,VWS V14.01,2013-01-25 13:01:00,
2013-01-25 08:06:00,9.6,1.8,30.33,NW,325,1.4,4.2,70,0.00,,BKN250,0.00,VWS V14.01,2013-01-25 13:06:00,
2013-01-25 08:11:00,9.8,2.0,30.33,NNW,339,0.0,5.6,70,0.00,,BKN250,0.00,VWS V14.01,2013-01-25 13:11:00,
2013-01-25 08:16:00,10.0,2.5,30.32,NW,308,0.0,1.4,71,0.00,,BKN250,0.00,VWS V14.01,2013-01-25 13:16:00,
2013-01-25 08:21:00,10.6,2.8,30.32,NW,310,0.0,2.8,70,0.00,,BKN250,0.00,VWS V14.01,2013-01-25 13:21:00,
2013-01-25 08:26:00,10.7,2.5,30.32,North,0,0.0,1.4,69,0.00,,BKN250,0.00,VWS V14.01,2013-01-25 13:26:00,
2013-01-25 08:31:00,11.0,2.5,30.32,NNW,337,0.0,5.6,68,0.00,,BKN250,0.00,VWS V14.01,2013-01-25 13:31:00,
2013-01-25 08:36:00,11.2,2.1,30.32,NNW,334,0.0,2.8,66,0.00,,BKN250,0.00,VWS V14.01,2013-01-25 13:36:00,
2013-01-25 08:41:00,11.4,2.3,30.32,WNW,290,2.8,2.8,66,0.00,,BKN250,0.00,VWS V14.01,2013-01-25 13:41:00,
2013-01-25 08:46:00,11.6,2.1,30.32,WNW,293,4.2,5.6,65,0.00,,BKN250,0.00,VWS V14.01,2013-01-25 13:46:00,
2013-01-25 08:51:00,11.9,2.1,30.32,NE,42,4.2,14.0,64,0.00,,BKN250,0.00,VWS V14.01,2013-01-25 13:51:00,
2013-01-25 08:56:00,12.2,1.3,30.33,WSW,247,0.0,1.4,61,0.00,,BKN250,0.00,VWS V14.01,2013-01-25 13:56:00,
2013-01-25 09:01:00,12.5,1.3,30.33,ENE,67,0.0,5.6,60,0.00,,BKN250,0.00,VWS V14.01,2013-01-25 14:01:00,
2013-01-25 09:06:00,12.7,0.7,30.32,NNE,27,0.0,2.8,58,0.00,,OVC250,0.00,VWS V14.01,2013-01-25 14:06:00,
2013-01-25 09:11:00,12.9,0.6,30.32,WSW,251,2.8,11.2,57,0.00,,OVC250,0.00,VWS V14.01,2013-01-25 14:11:00,
2013-01-25 09:16:00,13.0,-0.9,30.32,North,4,0.0,7.0,53,0.00,,OVC250,0.00,VWS V14.01,2013-01-25 14:16:00,
2013-01-25 09:21:00,13.0,-0.9,30.32,West,277,2.8,8.4,53,0.00,,OVC250,0.00,VWS V14.01,2013-01-25 14:21:00,
2013-01-25 09:26:00,13.2,-0.7,30.32,WSW,242,0.0,2.8,53,0.00,,OVC250,0.00,VWS V14.01,2013-01-25 14:26:00,
2013-01-25 09:31:00,13.6,-0.3,30.32,NNW,338,0.0,5.6,53,0.00,,OVC250,0.00,VWS V14.01,2013-01-25 14:31:00,
2013-01-25 09:36:00,14.0,0.4,30.33,WNW,293,0.0,1.4,54,0.00,,OVC250,0.00,VWS V14.01,2013-01-25 14:36:00,
2013-01-25 09:41:00,14.0,-0.4,30.32,North,6,0.0,7.0,52,0.00,,OVC250,0.00,VWS V14.01,2013-01-25 14:41:00,
2013-01-25 09:46:00,14.2,-0.6,30.33,NNE,32,5.6,8.4,51,0.00,,OVC250,0.00,VWS V14.01,2013-01-25 14:46:00,
2013-01-25 09:51:00,14.2,-0.6,30.33,WNW,285,0.0,1.4,51,0.00,,OVC250,0.00,VWS V14.01,2013-01-25 14:51:00,
2013-01-25 09:56:00,14.3,-0.9,30.33,NW,326,0.0,0.0,50,0.00,,OVC250,0.00,VWS V14.01,2013-01-25 14:56:00,
2013-01-25 10:01:00,14.2,-1.0,30.32,NNE,13,0.0,4.2,50,0.00,,OVC250,0.00,VWS V14.01,2013-01-25 15:01:00,
2013-01-25 10:06:00,14.2,-1.4,30.32,NNE,15,4.2,12.6,49,0.00,,OVC250,0.00,VWS V14.01,2013-01-25 15:06:00,
2013-01-25 10:11:00,14.6,-1.1,30.31,NW,311,4.2,4.2,49,0.00,,OVC250,0.00,VWS V14.01,2013-01-25 15:11:00,
2013-01-25 10:16:00,15.1,-0.2,30.33,ESE,122,1.4,2.8,50,0.00,,OVC250,0.00,VWS V14.01,2013-01-25 15:16:00,
2013-01-25 10:21:00,15.0,-1.1,30.33,WNW,284,0.0,1.4,48,0.00,,OVC250,0.00,VWS V14.01,2013-01-25 15:21:00,
2013-01-25 10:26:00,15.2,-1.0,30.32,South,188,1.4,9.8,48,0.00,,OVC250,0.00,VWS V14.01,2013-01-25 15:26:00,
2013-01-25 10:31:00,15.2,-1.9,30.33,West,280,5.6,5.6,46,0.00,,OVC250,0.00,VWS V14.01,2013-01-25 15:31:00,
2013-01-25 10:36:00,15.4,-1.2,30.32,WNW,285,0.0,4.2,47,0.00,,OVC250,0.00,VWS V14.01,2013-01-25 15:36:00,
2013-01-25 10:41:00,15.7,-0.9,30.32,NW,316,2.8,5.6,47,0.00,,OVC250,0.00,VWS V14.01,2013-01-25 15:41:00,
2013-01-25 10:46:00,15.7,-2.3,30.33,WNW,285,0.0,14.0,44,0.00,,OVC250,0.00,VWS V14.01,2013-01-25 15:46:00,
2013-01-25 10:51:00,15.9,-2.2,30.33,SW,226,1.4,5.6,44,0.00,,OVC250,0.00,VWS V14.01,2013-01-25 15:51:00,
2013-01-25 10:56:00,16.3,-1.8,30.33,WNW,291,0.0,1.4,44,0.00,,OVC250,0.00,VWS V14.01,2013-01-25 15:56:00,
2013-01-25 11:01:00,16.7,0.0,30.33,NNW,340,5.6,16.8,47,0.00,,OVC250,0.00,VWS V14.01,2013-01-25 16:01:00,
2013-01-25 11:06:00,17.1,-1.0,30.32,NW,317,5.6,9.8,44,0.00,,OVC250,0.00,VWS V14.01,2013-01-25 16:06:00,
2013-01-25 11:11:00,17.3,-0.4,30.31,NNW,331,0.0,2.8,45,0.00,,OVC250,0.00,VWS V14.01,2013-01-25 16:11:00,
2013-01-25 11:16:00,17.7,-0.5,30.32,WNW,282,0.0,0.0,44,0.00,,OVC250,0.00,VWS V14.01,2013-01-25 16:16:00,
2013-01-25 11:21:00,18.0,-0.7,30.32,WNW,284,1.4,1.4,43,0.00,,OVC250,0.00,VWS V14.01,2013-01-25 16:21:00,
2013-01-25 11:26:00,18.5,-0.8,30.32,NW,304,0.0,0.0,42,0.00,,OVC250,0.00,VWS V14.01,2013-01-25 16:26:00,
2013-01-25 11:31:00,18.9,0.1,30.30,NNW,343,0.0,0.0,43,0.00,,OVC250,0.00,VWS V14.01,2013-01-25 16:31:00,
2013-01-25 11:36:00,18.8,-0.5,30.29,WNW,298,0.0,8.4,42,0.00,,OVC250,0.00,VWS V14.01,2013-01-25 16:36:00,
2013-01-25 11:41:00,19.0,-0.8,30.30,NNW,345,0.0,4.2,41,0.00,,OVC250,0.00,VWS V14.01,2013-01-25 16:41:00,
2013-01-25 11:46:00,18.8,-1.5,30.29,SW,219,7.0,7.0,40,0.00,,OVC250,0.00,VWS V14.01,2013-01-25 16:46:00,
2013-01-25 11:51:00,19.0,-1.3,30.28,WNW,287,2.8,12.6,40,0.00,,OVC250,0.00,VWS V14.01,2013-01-25 16:51:00,
2013-01-25 11:56:00,18.8,-2.6,30.27,NNW,339,0.0,8.4,38,0.00,,OVC250,0.00,VWS V14.01,2013-01-25 16:56:00,
2013-01-25 12:01:00,19.2,-1.7,30.27,West,276,0.0,1.4,39,0.00,,OVC250,0.00,VWS V14.01,2013-01-25 17:01:00,
2013-01-25 12:06:00,19.6,-1.3,30.27,North,359,0.0,8.4,39,0.00,,OVC250,0.00,VWS V14.01,2013-01-25 17:06:00,
2013-01-25 12:11:00,19.7,-1.2,30.27,North,0,0.0,1.4,39,0.00,,OVC250,0.00,VWS V14.01,2013-01-25 17:11:00,
2013-01-25 12:16:00,20.0,-1.0,30.26,North,11,7.0,11.2,39,0.00,,OVC250,0.00,VWS V14.01,2013-01-25 17:16:00,
2013-01-25 12:21:00,20.2,-0.8,30.25,NNE,16,2.8,5.6,39,0.00,,OVC250,0.00,VWS V14.01,2013-01-25 17:21:00,
2013-01-25 12:26:00,19.9,-2.2,30.25,WNW,303,5.6,8.4,37,0.00,,OVC250,0.00,VWS V14.01,2013-01-25 17:26:00,
2013-01-25 12:31:00,20.0,-2.1,30.25,NNE,26,0.0,2.8,37,0.00,,OVC250,0.00,VWS V14.01,2013-01-25 17:31:00,
2013-01-25 12:36:00,20.2,-0.8,30.24,NE,55,0.0,5.6,39,0.00,,OVC250,0.00,VWS V14.01,2013-01-25 17:36:00,
2013-01-25 12:41:00,20.0,-2.7,30.24,NW,308,0.0,1.4,36,0.00,,OVC250,0.00,VWS V14.01,2013-01-25 17:41:00,
2013-01-25 12:46:00,20.0,-2.7,30.24,NNE,22,0.0,5.6,36,0.00,,OVC250,0.00,VWS V14.01,2013-01-25 17:46:00,
2013-01-25 12:51:00,19.7,-4.7,30.23,NE,40,4.2,5.6,33,0.00,,OVC250,0.00,VWS V14.01,2013-01-25 17:51:00,
2013-01-25 12:56:00,20.2,-1.9,30.23,West,274,1.4,1.4,37,0.00,,OVC250,0.00,VWS V14.01,2013-01-25 17:56:00,
2013-01-25 13:01:00,20.7,-2.6,30.22,ENE,59,1.4,1.4,35,0.00,,OVC250,0.00,VWS V14.01,2013-01-25 18:01:00,
2013-01-25 13:06:00,21.0,-1.8,30.22,NW,317,1.4,1.4,36,0.00,,OVC150,0.00,VWS V14.01,2013-01-25 18:06:00,
2013-01-25 13:11:00,21.5,-1.3,30.22,WNW,293,0.0,0.0,36,0.00,,OVC150,0.00,VWS V14.01,2013-01-25 18:11:00,
2013-01-25 13:16:00,21.5,-1.3,30.22,NNE,31,0.0,1.4,36,0.00,,OVC150,0.00,VWS V14.01,2013-01-25 18:16:00,
2013-01-25 13:21:00,21.9,-0.9,30.21,WNW,298,0.0,1.4,36,0.00,,OVC150,0.00,VWS V14.01,2013-01-25 18:21:00,
2013-01-25 13:26:00,21.9,-2.8,30.21,WSW,256,0.0,2.8,33,0.00,,OVC150,0.00,VWS V14.01,2013-01-25 18:26:00,
2013-01-25 13:31:00,22.0,-2.1,30.21,NW,316,0.0,4.2,34,0.00,,OVC150,0.00,VWS V14.01,2013-01-25 18:31:00,
2013-01-25 13:36:00,21.5,-3.1,30.21,West,277,0.0,1.4,33,0.00,,OVC150,0.00,VWS V14.01,2013-01-25 18:36:00,
2013-01-25 13:41:00,21.5,-1.9,30.21,SW,224,2.8,2.8,35,0.00,,OVC150,0.00,VWS V14.01,2013-01-25 18:41:00,
2013-01-25 13:46:00,21.5,-2.5,30.21,West,259,0.0,7.0,34,0.00,,OVC150,0.00,VWS V14.01,2013-01-25 18:46:00,
2013-01-25 13:51:00,21.5,-2.5,30.20,SW,227,0.0,4.2,34,0.00,,OVC150,0.00,VWS V14.01,2013-01-25 18:51:00,
2013-01-25 13:56:00,21.5,-1.9,30.20,SW,231,0.0,4.2,35,0.00,,OVC150,0.00,VWS V14.01,2013-01-25 18:56:00,
2013-01-25 14:01:00,21.2,-1.6,30.20,SW,233,0.0,12.6,36,0.00,,OVC150,0.00,VWS V14.01,2013-01-25 19:01:00,
2013-01-25 14:06:00,21.0,-1.8,30.20,SW,233,0.0,8.4,36,0.00,,OVC250,0.00,VWS V14.01,2013-01-25 19:06:00,
2013-01-25 14:11:00,20.9,-1.8,30.20,SSW,206,0.0,1.4,36,0.00,,OVC250,0.00,VWS V14.01,2013-01-25 19:11:00,
2013-01-25 14:16:00,21.3,-0.3,30.20,NNW,327,0.0,9.8,38,0.00,,OVC250,0.00,VWS V14.01,2013-01-25 19:16:00,
2013-01-25 14:21:00,21.6,-0.6,30.20,SW,219,0.0,2.8,37,0.00,,OVC250,0.00,VWS V14.01,2013-01-25 19:21:00,
2013-01-25 14:26:00,21.6,-0.6,30.20,WNW,300,4.2,4.2,37,0.00,,OVC250,0.00,VWS V14.01,2013-01-25 19:26:00,
2013-01-25 14:31:00,21.8,0.7,30.19,NNW,345,0.0,1.4,39,0.00,,OVC250,0.00,VWS V14.01,2013-01-25 19:31:00,
2013-01-25 14:36:00,22.2,1.0,30.19,NNW,342,0.0,0.0,39,0.00,,OVC250,0.00,VWS V14.01,2013-01-25 19:36:00,
2013-01-25 14:41:00,22.4,0.6,30.19,NW,312,0.0,0.0,38,0.00,,OVC250,0.00,VWS V14.01,2013-01-25 19:41:00,
2013-01-25 14:46:00,22.1,0.4,30.19,WNW,290,0.0,0.0,38,0.00,,OVC250,0.00,VWS V14.01,2013-01-25 19:46:00,
2013-01-25 14:51:00,22.1,0.4,30.19,WNW,292,0.0,7.0,38,0.00,,OVC250,0.00,VWS V14.01,2013-01-25 19:51:00,
2013-01-25 14:56:00,21.5,-0.7,30.19,WSW,247,0.0,0.0,37,0.00,,OVC250,0.00,VWS V14.01,2013-01-25 19:56:00,
2013-01-25 15:01:00,21.7,0.6,30.19,NNW,342,0.0,5.6,39,0.00,,OVC250,0.00,VWS V14.01,2013-01-25 20:01:00,
2013-01-25 15:06:00,21.8,-0.5,30.19,WNW,300,0.0,0.0,37,0.00,,OVC250,0.00,VWS V14.01,2013-01-25 20:06:00,
2013-01-25 15:11:00,21.5,-1.3,30.19,SW,232,0.0,1.4,36,0.00,,OVC250,0.00,VWS V14.01,2013-01-25 20:11:00,
2013-01-25 15:16:00,21.5,-0.2,30.18,SW,219,0.0,0.0,38,0.00,,OVC250,0.00,VWS V14.01,2013-01-25 20:16:00,
2013-01-25 15:21:00,21.5,-0.7,30.18,North,355,0.0,5.6,37,0.00,,OVC250,0.00,VWS V14.01,2013-01-25 20:21:00,
2013-01-25 15:26:00,21.5,-0.7,30.18,North,355,0.0,2.8,37,0.00,,OVC250,0.00,VWS V14.01,2013-01-25 20:26:00,
2013-01-25 15:31:00,21.5,-0.7,30.17,WNW,299,0.0,0.0,37,0.00,,OVC250,0.00,VWS V14.01,2013-01-25 20:31:00,
2013-01-25 15:36:00,21.6,0.5,30.17,WNW,299,0.0,0.0,39,0.00,,OVC250,0.00,VWS V14.01,2013-01-25 20:36:00,
2013-01-25 15:41:00,21.6,-0.1,30.17,WNW,299,0.0,0.0,38,0.00,,OVC250,0.00,VWS V14.01,2013-01-25 20:41:00,
2013-01-25 15:46:00,21.5,-0.7,30.16,WSW,249,0.0,1.4,37,0.00,,OVC250,0.00,VWS V14.01,2013-01-25 20:46:00,
2013-01-25 15:51:00,21.5,0.4,30.16,WSW,249,0.0,2.8,39,0.00,,OVC250,0.00,VWS V14.01,2013-01-25 20:51:00,
2013-01-25 15:56:00,21.3,0.2,30.16,WSW,249,0.0,1.4,39,0.00,,OVC250,0.00,VWS V14.01,2013-01-25 20:56:00,
2013-01-25 16:01:00,21.2,0.7,30.16,West,269,0.0,0.0,40,0.00,,OVC250,0.00,VWS V14.01,2013-01-25 21:01:00,
2013-01-25 16:06:00,21.2,0.1,30.17,SW,219,0.0,0.0,39,0.00,,OVC120,0.00,VWS V14.01,2013-01-25 21:06:00,
2013-01-25 16:11:00,21.2,0.7,30.16,SW,219,0.0,0.0,40,0.00,,OVC120,0.00,VWS V14.01,2013-01-25 21:11:00,
2013-01-25 16:16:00,21.2,1.2,30.16,SW,219,0.0,0.0,41,0.00,,OVC120,0.00,VWS V14.01,2013-01-25 21:16:00,
2013-01-25 16:21:00,21.0,1.0,30.16,WSW,239,0.0,0.0,41,0.00,,OVC120,0.00,VWS V14.01,2013-01-25 21:21:00,
2013-01-25 16:25:00,20.9,0.9,30.16,WSW,239,0.0,1.4,41,0.00,,OVC120,0.00,VWS V14.01,2013-01-25 21:25:00,
2013-01-25 16:30:00,20.9,1.4,30.17,WSW,239,0.0,1.4,42,0.00,,OVC120,0.00,VWS V14.01,2013-01-25 21:30:00,
2013-01-25 16:35:00,20.9,1.4,30.16,WSW,239,0.0,1.4,42,0.00,,OVC120,0.00,VWS V14.01,2013-01-25 21:35:00,
2013-01-25 16:40:00,20.9,1.4,30.17,NW,307,0.0,5.6,42,0.00,,OVC120,0.00,VWS V14.01,2013-01-25 21:40:00,
2013-01-25 16:45:00,20.7,2.2,30.16,NW,307,0.0,0.0,44,0.00,,OVC120,0.00,VWS V14.01,2013-01-25 21:45:00,
2013-01-25 16:50:00,20.7,1.2,30.16,WSW,246,0.0,0.0,42,0.00,,OVC120,0.00,VWS V14.01,2013-01-25 21:50:00,
2013-01-25 16:55:00,20.7,2.2,30.16,WSW,242,0.0,1.4,44,0.00,,OVC120,0.00,VWS V14.01,2013-01-25 21:55:00,
2013-01-25 17:00:00,20.7,1.8,30.16,WSW,237,0.0,1.4,43,0.00,,OVC120,0.00,VWS V14.01,2013-01-25 22:00:00,
2013-01-25 17:05:00,20.6,2.2,30.17,SSW,211,0.0,0.0,44,0.00,,OVC090,0.00,VWS V14.01,2013-01-25 22:05:00,
2013-01-25 17:10:00,20.4,2.0,30.16,SSW,211,0.0,0.0,44,0.00,,OVC090,0.00,VWS V14.01,2013-01-25 22:10:00,
2013-01-25 17:15:00,20.4,2.9,30.15,SSW,211,0.0,0.0,46,0.00,,OVC090,0.00,VWS V14.01,2013-01-25 22:15:00,
2013-01-25 17:20:00,20.4,2.9,30.15,SSW,211,0.0,0.0,46,0.00,,OVC090,0.00,VWS V14.01,2013-01-25 22:20:00,
2013-01-25 17:25:00,20.4,2.5,30.15,SSW,211,0.0,0.0,45,0.00,,OVC090,0.00,VWS V14.01,2013-01-25 22:25:00,
2013-01-25 17:30:00,20.2,2.3,30.15,SSW,212,0.0,0.0,45,0.00,,OVC090,0.00,VWS V14.01,2013-01-25 22:30:00,
2013-01-25 17:35:00,20.1,2.2,30.15,SSW,212,0.0,0.0,45,0.00,,OVC090,0.00,VWS V14.01,2013-01-25 22:35:00,
2013-01-25 17:40:00,20.0,2.1,30.14,SSW,212,0.0,0.0,45,0.00,,OVC090,0.00,VWS V14.01,2013-01-25 22:40:00,
2013-01-25 17:45:00,19.9,2.0,30.14,SSW,212,0.0,1.4,45,0.00,,OVC090,0.00,VWS V14.01,2013-01-25 22:45:00,
2013-01-25 17:50:00,19.7,1.8,30.14,SSW,212,0.0,0.0,45,0.00,,OVC090,0.00,VWS V14.01,2013-01-25 22:50:00,
2013-01-25 17:55:00,19.7,1.8,30.14,SSW,212,0.0,0.0,45,0.00,,OVC090,0.00,VWS V14.01,2013-01-25 22:55:00,
2013-01-25 18:00:00,19.6,1.7,30.14,SSW,212,1.4,1.4,45,0.00,,OVC090,0.00,VWS V14.01,2013-01-25 23:00:00,
2013-01-25 18:05:00,19.6,1.7,30.14,SSW,212,0.0,1.4,45,0.00,,OVC100,0.00,VWS V14.01,2013-01-25 23:05:00,
2013-01-25 18:10:00,19.6,1.7,30.14,SSW,212,0.0,0.0,45,0.00,,OVC100,0.00,VWS V14.01,2013-01-25 23:10:00,
2013-01-25 18:15:00,19.6,1.7,30.14,SSW,212,0.0,0.0,45,0.00,,OVC100,0.00,VWS V14.01,2013-01-25 23:15:00,
2013-01-25 18:20:00,19.5,1.6,30.14,SSW,212,0.0,1.4,45,0.00,,OVC100,0.00,VWS V14.01,2013-01-25 23:20:00,
2013-01-25 18:25:00,19.6,1.7,30.13,SSW,212,0.0,0.0,45,0.00,,OVC100,0.00,VWS V14.01,2013-01-25 23:25:00,
2013-01-25 18:30:00,19.6,2.7,30.13,SSW,212,0.0,0.0,47,0.00,,OVC100,0.00,VWS V14.01,2013-01-25 23:30:00,
2013-01-25 18:35:00,19.6,2.2,30.12,SSW,212,0.0,0.0,46,0.00,,OVC100,0.00,VWS V14.01,2013-01-25 23:35:00,
2013-01-25 18:40:00,19.6,2.2,30.12,SSW,212,0.0,0.0,46,0.00,,OVC100,0.00,VWS V14.01,2013-01-25 23:40:00,
2013-01-25 18:45:00,19.6,2.7,30.12,SSW,212,0.0,0.0,47,0.00,,OVC100,0.00,VWS V14.01,2013-01-25 23:45:00,
2013-01-25 18:50:00,19.6,2.7,30.12,SSW,212,0.0,0.0,47,0.00,,OVC100,0.00,VWS V14.01,2013-01-25 23:50:00,
2013-01-25 18:55:00,19.6,3.5,30.11,SSW,212,0.0,0.0,49,0.00,,OVC100,0.00,VWS V14.01,2013-01-25 23:55:00,
2013-01-25 19:00:00,19.7,2.8,30.11,SSW,212,0.0,0.0,47,0.00,,OVC100,0.00,VWS V14.01,2013-01-26 00:00:00,
2013-01-25 19:05:00,19.6,3.1,30.11,SSW,212,0.0,0.0,48,0.00,,OVC050,0.00,VWS V14.01,2013-01-26 00:05:00,
2013-01-25 19:10:00,19.6,3.1,30.11,SSW,212,0.0,0.0,48,0.00,,OVC050,0.00,VWS V14.01,2013-01-26 00:10:00,
2013-01-25 19:15:00,19.6,3.1,30.10,SSW,212,0.0,0.0,48,0.00,,OVC050,0.00,VWS V14.01,2013-01-26 00:15:00,
2013-01-25 19:20:00,19.6,3.5,30.10,SSW,212,0.0,0.0,49,0.00,,OVC050,0.00,VWS V14.01,2013-01-26 00:20:00,
2013-01-25 19:25:00,19.6,4.4,30.10,SSW,212,0.0,0.0,51,0.00,,OVC050,0.00,VWS V14.01,2013-01-26 00:25:00,
2013-01-25 19:30:00,19.6,4.0,30.09,SSW,212,0.0,0.0,50,0.00,,OVC050,0.00,VWS V14.01,2013-01-26 00:30:00,
2013-01-25 19:35:00,19.6,4.0,30.09,SSW,212,0.0,0.0,50,0.00,,OVC050,0.00,VWS V14.01,2013-01-26 00:35:00,
2013-01-25 19:40:00,19.6,4.4,30.09,SSW,212,0.0,0.0,51,0.00,,OVC050,0.00,VWS V14.01,2013-01-26 00:40:00,
2013-01-25 19:45:00,19.6,5.3,30.09,SSW,212,0.0,0.0,53,0.00,,OVC050,0.00,VWS V14.01,2013-01-26 00:45:00,
2013-01-25 19:50:00,19.6,5.7,30.09,SSW,212,0.0,0.0,54,0.00,,OVC050,0.00,VWS V14.01,2013-01-26 00:50:00,
2013-01-25 19:55:00,19.4,7.4,30.09,SSW,212,0.0,0.0,59,0.00,,OVC050,0.00,VWS V14.01,2013-01-26 00:55:00,
2013-01-25 20:00:00,19.3,8.8,30.09,SSW,212,0.0,0.0,63,0.00,,OVC050,0.00,VWS V14.01,2013-01-26 01:00:00,
2013-01-25 20:05:00,19.1,9.6,30.09,NW,305,0.0,1.4,66,0.00,,,0.00,VWS V14.01,2013-01-26 01:05:00,
2013-01-25 20:10:00,18.8,10.6,30.08,NW,305,0.0,1.4,70,0.00,,,0.00,VWS V14.01,2013-01-26 01:10:00,
2013-01-25 20:15:00,18.5,11.0,30.08,NW,305,0.0,0.0,72,0.00,,,0.00,VWS V14.01,2013-01-26 01:15:00,
2013-01-25 20:20:00,18.2,11.6,30.09,NW,305,0.0,0.0,75,0.00,,,0.00,VWS V14.01,2013-01-26 01:20:00,
2013-01-25 20:25:00,18.0,11.7,30.08,WNW,303,0.0,0.0,76,0.00,,,0.00,VWS V14.01,2013-01-26 01:25:00,
2013-01-25 20:30:00,17.8,12.4,30.08,WNW,303,0.0,1.4,79,0.00,,,0.00,VWS V14.01,2013-01-26 01:30:00,
2013-01-25 20:35:00,17.7,12.3,30.08,WNW,303,0.0,0.0,79,0.00,,,0.00,VWS V14.01,2013-01-26 01:35:00,
2013-01-25 20:40:00,17.7,12.9,30.08,WNW,303,0.0,0.0,81,0.00,,,0.00,VWS V14.01,2013-01-26 01:40:00,
2013-01-25 20:45:00,17.7,13.1,30.08,WNW,303,0.0,0.0,82,0.00,,,0.00,VWS V14.01,2013-01-26 01:45:00,
2013-01-25 20:50:00,17.7,13.4,30.08,WNW,303,0.0,0.0,83,0.00,,,0.00,VWS V14.01,2013-01-26 01:50:00,
2013-01-25 20:55:00,17.6,13.6,30.07,WNW,303,0.0,0.0,84,0.00,,,0.00,VWS V14.01,2013-01-26 01:55:00,
2013-01-25 21:00:00,17.4,13.4,30.07,WNW,303,0.0,0.0,84,0.00,,,0.00,VWS V14.01,2013-01-26 02:00:00,
2013-01-25 21:05:00,17.4,13.7,30.07,WNW,303,0.0,0.0,85,0.00,,,0.00,VWS V14.01,2013-01-26 02:05:00,
2013-01-25 21:10:00,17.4,13.7,30.07,WNW,303,0.0,0.0,85,0.00,,,0.00,VWS V14.01,2013-01-26 02:10:00,
2013-01-25 21:15:00,17.2,13.7,30.07,WNW,303,0.0,0.0,86,0.00,,,0.00,VWS V14.01,2013-01-26 02:15:00,
2013-01-25 21:20:00,17.2,13.7,30.06,WNW,303,0.0,0.0,86,0.00,,,0.00,VWS V14.01,2013-01-26 02:20:00,
2013-01-25 21:25:00,17.1,13.6,30.06,WNW,303,0.0,0.0,86,0.00,,,0.00,VWS V14.01,2013-01-26 02:25:00,
2013-01-25 21:30:00,17.1,13.6,30.06,WNW,303,0.0,0.0,86,0.00,,,0.00,VWS V14.01,2013-01-26 02:30:00,
2013-01-25 21:35:00,17.1,13.9,30.05,WNW,303,0.0,0.0,87,0.00,,,0.00,VWS V14.01,2013-01-26 02:35:00,
2013-01-25 21:40:00,17.1,13.9,30.05,WNW,303,0.0,0.0,87,0.00,,,0.00,VWS V14.01,2013-01-26 02:40:00,
2013-01-25 21:45:00,17.1,14.2,30.05,WNW,303,0.0,0.0,88,0.00,,,0.00,VWS V14.01,2013-01-26 02:45:00,
2013-01-25 21:50:00,17.1,14.2,30.05,NNW,327,0.0,0.0,88,0.00,,,0.00,VWS V14.01,2013-01-26 02:50:00,
2013-01-25 21:55:00,17.1,14.2,30.05,NNW,327,0.0,0.0,88,0.00,,,0.00,VWS V14.01,2013-01-26 02:55:00,
2013-01-25 22:00:00,17.1,14.4,30.05,NNW,327,0.0,0.0,89,0.00,,,0.00,VWS V14.01,2013-01-26 03:00:00,
2013-01-25 22:05:00,17.2,14.5,30.05,NNW,327,0.0,0.0,89,0.00,,,0.00,VWS V14.01,2013-01-26 03:05:00,
2013-01-25 22:10:00,17.2,14.8,30.04,NNW,327,0.0,0.0,90,0.00,,,0.00,VWS V14.01,2013-01-26 03:10:00,
2013-01-25 22:15:00,17.2,14.5,30.04,NNW,327,0.0,0.0,89,0.00,,,0.00,VWS V14.01,2013-01-26 03:15:00,
2013-01-25 22:20:00,17.2,14.5,30.04,NNW,327,0.0,0.0,89,0.00,,,0.00,VWS V14.01,2013-01-26 03:20:00,
2013-01-25 22:25:00,17.2,14.5,30.04,NNW,327,0.0,0.0,89,0.00,,,0.00,VWS V14.01,2013-01-26 03:25:00,
2013-01-25 22:30:00,17.2,14.5,30.03,NNW,327,0.0,0.0,89,0.00,,,0.00,VWS V14.01,2013-01-26 03:30:00,
2013-01-25 22:35:00,17.2,14.5,30.04,NNW,327,0.0,0.0,89,0.00,,,0.00,VWS V14.01,2013-01-26 03:35:00,
2013-01-25 22:40:00,17.2,14.5,30.03,NNW,327,0.0,0.0,89,0.00,,,0.00,VWS V14.01,2013-01-26 03:40:00,
2013-01-25 22:45:00,17.1,14.4,30.03,NNW,327,0.0,0.0,89,0.00,,,0.00,VWS V14.01,2013-01-26 03:45:00,
2013-01-25 22:50:00,17.1,14.4,30.03,NNW,327,0.0,1.4,89,0.00,,,0.00,VWS V14.01,2013-01-26 03:50:00,
2013-01-25 22:55:00,16.9,14.2,30.03,NNW,327,0.0,0.0,89,0.00,,,0.00,VWS V14.01,2013-01-26 03:55:00,
2013-01-25 23:00:00,16.7,14.0,30.03,NNW,327,0.0,0.0,89,0.00,,,0.00,VWS V14.01,2013-01-26 04:00:00,
2013-01-25 23:05:00,16.8,14.1,30.03,NNW,327,0.0,0.0,89,0.00,,,0.00,VWS V14.01,2013-01-26 04:05:00,
2013-01-25 23:10:00,16.6,13.9,30.03,NNW,327,0.0,0.0,89,0.00,,,0.00,VWS V14.01,2013-01-26 04:10:00,
2013-01-25 23:15:00,16.5,14.1,30.03,NNW,327,0.0,0.0,90,0.00,,,0.00,VWS V14.01,2013-01-26 04:15:00,
2013-01-25 23:20:00,16.1,13.7,30.03,NNW,327,0.0,0.0,90,0.00,,,0.00,VWS V14.01,2013-01-26 04:20:00,
2013-01-25 23:25:00,16.0,13.6,30.03,NNW,327,0.0,0.0,90,0.00,,,0.00,VWS V14.01,2013-01-26 04:25:00,
2013-01-25 23:30:00,16.0,13.6,30.03,NNW,327,0.0,0.0,90,0.00,,,0.00,VWS V14.01,2013-01-26 04:30:00,
2013-01-25 23:35:00,15.9,13.5,30.03,NNW,327,0.0,0.0,90,0.00,,,0.00,VWS V14.01,2013-01-26 04:35:00,
2013-01-25 23:40:00,15.7,13.0,30.03,NNW,327,0.0,0.0,89,0.00,,,0.00,VWS V14.01,2013-01-26 04:40:00,
2013-01-25 23:45:00,15.4,13.0,30.03,NNW,327,0.0,0.0,90,0.00,,,0.00,VWS V14.01,2013-01-26 04:45:00,
2013-01-25 23:50:00,15.3,13.1,30.03,NNW,327,0.0,0.0,91,0.00,,,0.00,VWS V14.01,2013-01-26 04:50:00,
2013-01-25 23:55:00,15.1,12.9,30.03,NNW,327,0.0,0.0,91,0.00,,,0.00,VWS V14.01,2013-01-26 04:55:00,